Вернуться в каталог

SSA

АктивенВоенныеLEO
NORAD 13844·PAYLOAD·🇺🇸 United States

Запущен Feb 9, 1983 с Vandenberg Space Force Base

Loading…

Ближайшие Пролёты (ближайшие 24 часа)

TLE

СвежийSource: Space-Track

Эпоха: Sep 14, 2026, 09:12 UTC

1 13844U 83008E   26257.38351767  .00001531  00000-0  24063-3 0  9999
2 13844  63.3114 142.8267 0704009 136.4675 229.4206 13.78088111371141

Отслеживайте SSA в реальном времени с AllMySat

Download on the App Store